軌道要素
Epoch 2008 Aug. 2.0 TT = JDT 2454680.5
T 2008 Aug. 11.45507 TT MPC
q 7.4746252 (2000.0) P Q
z +0.0006248 Peri. 52.61604 +0.17622777 -0.91851770
+/-0.0000016 Node 326.80764 -0.97472467 -0.11267570
e 0.9953298 Incl. 139.72092 +0.13731567 +0.37898473
From 206 observations 2007 June 16-2011 May 7, mean residual 0".6.
|